TimeEDT,TemperatureF,Dew PointF,Humidity,Sea Level PressureIn,VisibilityMPH,Wind Direction,Wind SpeedMPH,Gust SpeedMPH,PrecipitationIn,Events,Conditions,WindDirDegrees,DateUTC
12:09 AM,60.8,60.8,100,30.12,10.0,Calm,Calm,-,N/A,,Clear,0,2012-10-05 04:09:00
12:30 AM,60.8,59.0,94,30.12,10.0,Calm,Calm,-,N/A,,Clear,0,2012-10-05 04:30:00
12:51 AM,60.8,60.8,100,30.12,10.0,Calm,Calm,-,N/A,,Clear,0,2012-10-05 04:51:00
1:12 AM,60.8,60.8,100,30.12,10.0,Calm,Calm,-,N/A,,Clear,0,2012-10-05 05:12:00
1:33 AM,60.8,60.8,100,30.13,10.0,Calm,Calm,-,N/A,,Clear,0,2012-10-05 05:33:00
1:54 AM,60.8,59.0,94,30.13,10.0,Calm,Calm,-,N/A,,Clear,0,2012-10-05 05:54:00
2:15 AM,60.8,59.0,94,30.13,10.0,Calm,Calm,-,N/A,,Clear,0,2012-10-05 06:15:00
3:00 AM,59.0,59.0,100,30.12,10.0,WSW,3.5,-,N/A,,Clear,250,2012-10-05 07:00:00
3:21 AM,59.0,57.2,94,30.12,10.0,West,3.5,-,N/A,,Clear,270,2012-10-05 07:21:00
4:03 AM,59.0,57.2,94,30.12,10.0,Calm,Calm,-,N/A,,Clear,0,2012-10-05 08:03:00
4:24 AM,59.0,57.2,94,30.12,10.0,Calm,Calm,-,N/A,,Clear,0,2012-10-05 08:24:00
5:06 AM,59.0,57.2,94,30.13,10.0,WSW,3.5,-,N/A,,Clear,240,2012-10-05 09:06:00
5:27 AM,60.8,55.4,82,30.13,10.0,Calm,Calm,-,N/A,,Clear,0,2012-10-05 09:27:00
5:33 AM,60.8,55.4,82,30.13,10.0,Calm,Calm,-,N/A,,Clear,0,2012-10-05 09:33:00
5:54 AM,59.0,57.2,94,30.13,10.0,Calm,Calm,-,N/A,,Clear,0,2012-10-05 09:54:00
6:54 AM,59.0,55.4,88,30.13,10.0,Calm,Calm,-,N/A,,Clear,0,2012-10-05 10:54:00
7:54 AM,60.8,57.2,88,30.12,10.0,Calm,Calm,-,N/A,,Clear,0,2012-10-05 11:54:00
8:45 AM,64.4,59.0,83,30.13,7.0,Calm,Calm,-,N/A,,Clear,0,2012-10-05 12:45:00
9:45 AM,71.6,59.0,64,30.13,7.0,West,8.1,-,N/A,,Clear,270,2012-10-05 13:45:00
10:45 AM,75.2,59.0,57,30.13,7.0,WNW,9.2,-,N/A,,Clear,300,2012-10-05 14:45:00
11:45 AM,77.0,59.0,54,30.11,7.0,NW,8.1,-,N/A,,Clear,320,2012-10-05 15:45:00
1:45 PM,80.6,62.6,54,30.05,10.0,ENE,5.8,-,N/A,,Partly Cloudy,60,2012-10-05 17:45:00
2:45 PM,82.4,55.4,39,30.03,10.0,WSW,13.8,20.7,N/A,,Partly Cloudy,240,2012-10-05 18:45:00
4:45 PM,80.6,55.4,42,30.01,10.0,WSW,5.8,17.3,N/A,,Partly Cloudy,250,2012-10-05 20:45:00
5:55 PM,75.2,62.6,65,30.01,10.0,WSW,3.5,-,N/A,,Partly Cloudy,240,2012-10-05 21:55:00
6:45 PM,71.6,64.4,78,30.01,10.0,SSE,3.5,-,N/A,,Partly Cloudy,150,2012-10-05 22:45:00
7:45 PM,71.6,60.8,69,30.00,10.0,SSE,3.5,-,N/A,,Partly Cloudy,160,2012-10-05 23:45:00
8:55 PM,71.6,60.8,69,30.00,10.0,South,3.5,-,N/A,,Partly Cloudy,190,2012-10-06 00:55:00
9:45 PM,69.8,62.6,78,29.99,10.0,Calm,Calm,-,N/A,,Partly Cloudy,0,2012-10-06 01:45:00
10:06 PM,69.8,60.8,73,29.99,10.0,South,3.5,-,N/A,,Clear,180,2012-10-06 02:06:00
10:27 PM,66.2,60.8,83,29.99,10.0,Calm,Calm,-,N/A,,Clear,0,2012-10-06 02:27:00
10:51 PM,68.0,62.6,83,29.99,10.0,Calm,Calm,-,N/A,,Clear,0,2012-10-06 02:51:00
11:12 PM,68.0,62.6,83,29.98,10.0,South,4.6,-,N/A,,Clear,170,2012-10-06 03:12:00
11:33 PM,68.0,60.8,78,29.97,10.0,South,4.6,-,N/A,,Clear,180,2012-10-06 03:33:00